Find Starlink 32466

NORAD ID: 61859 Int'l Des: 2024-202 Owner: SPXS Country: US Constellation: starlink operational
LEOCIRCULAR

当前视图

正在加载3D地球...

About Starlink 32466

Starlink 32466 (NORAD 61859) is a starlink constellation satellite (v2 mini) launched Nov 7, 2024 by SPXS of US. It operates in LEO, CIRCULAR orbit with a mass of 730.00 kg.

关于 Starlink 32466

正在加载描述...

即将过境

Passes for default location (London). Set your location on the main map for personalized predictions.

高度历史

Loading altitude history...

两行轨道根数

1 61859U 24202Q 26170.99432387 .00001152 00000-0 51371-4 0 9990
2 61859 43.0029 20.2390 0001525 269.3065 90.7611 15.27585926 90989
Epoch: Jun 19, 2026 • Age: 26 hours

当前状态

高度 495.0 km
速度 7.62 km/s
星下点 -42.21°S, 31.45°W
发射日期 Nov 7, 2024
运行时间 1.6 years
类型 internet

技术详情

分类 Payload
质量 730.00 kg
干质量 700.00 kg
总质量 730.00 kg
长度 0.30 m
直径 4.10 m
跨度 29.00 m
形状 Box + pan
制造商 SPXS
平台类型 Starlink V2M
阶段状态 In Orbit
所有者/国家 SPXS/US

Most Searched